| time (UTC) | temp F | wind direction | speed MPH | gust MPH | rain 1hr in | rain 24hr in | rain mn in | humidity % | barometer mb |
| 20260831230029 | 61 | 173 | 1.0 | 3.0 | 0.00 | 0.00 | 0.00 | 89 | 1010.5 |
| 20260831224522 | 61 | 190 | 1.0 | 5.0 | 0.00 | 0.00 | 0.00 | 89 | 1010.6 |
| 20260831223020 | 61 | 186 | 2.0 | 6.0 | 0.00 | 0.00 | 0.00 | 89 | 1010.7 |
| 20260831221519 | 61 | 185 | 2.0 | 5.0 | 0.00 | 0.00 | 0.00 | 89 | 1010.7 |
| 20260831220017 | 62 | 182 | 2.0 | 5.0 | 0.00 | 0.00 | 0.00 | 89 | 1010.7 |
| 20260831214517 | 62 | 188 | 2.0 | 6.0 | 0.00 | 0.00 | 0.00 | 89 | 1010.7 |
| 20260831213016 | 62 | 195 | 1.0 | 6.0 | 0.00 | 0.00 | 0.00 | 89 | 1010.8 |
| 20260831211527 | 62 | 188 | 2.0 | 7.0 | 0.00 | 0.00 | 0.00 | 88 | 1010.8 |
| 20260831210015 | 61 | 176 | 2.0 | 6.0 | 0.00 | 0.00 | 0.00 | 88 | 1010.7 |
| 20260831204514 | 61 | 174 | 1.0 | 5.0 | 0.00 | 0.00 | 0.00 | 88 | 1010.6 |
| 20260831203019 | 61 | 187 | 2.0 | 6.0 | 0.00 | 0.00 | 0.00 | 87 | 1010.8 |
| 20260831201514 | 61 | 170 | 3.0 | 7.0 | 0.00 | 0.00 | 0.00 | 88 | 1010.8 |
| 20260831200012 | 61 | 196 | 3.0 | 8.0 | 0.00 | 0.00 | 0.00 | 88 | 1010.8 |
| 20260831194512 | 62 | 171 | 2.0 | 8.0 | 0.00 | 0.00 | 0.00 | 88 | 1010.9 |
| 20260831193014 | 62 | 175 | 3.0 | 7.0 | 0.00 | 0.00 | 0.00 | 88 | 1010.9 |
| 20260831191510 | 62 | 175 | 2.0 | 8.0 | 0.00 | 0.00 | 0.00 | 89 | 1010.9 |
| 20260831190112 | 62 | 171 | 3.0 | 7.0 | 0.00 | 0.00 | 0.00 | 89 | 1010.7 |
| 20260831184510 | 62 | 175 | 2.0 | 8.0 | 0.00 | 0.00 | 0.00 | 90 | 1010.6 |
| 20260831183008 | 62 | 164 | 2.0 | 7.0 | 0.00 | 0.00 | 0.00 | 91 | 1010.7 |
| 20260831181508 | 62 | 177 | 3.0 | 8.0 | 0.00 | 0.00 | 0.00 | 92 | 1010.7 |
| 20260831180011 | 63 | 189 | 3.0 | 9.0 | 0.00 | 0.03 | 0.00 | 92 | 1010.7 |
| 20260831174507 | 63 | 203 | 3.0 | 7.0 | 0.00 | 0.03 | 0.00 | 93 | 1010.7 |
| 20260831173005 | 63 | 192 | 3.0 | 11.0 | 0.00 | 0.03 | 0.00 | 93 | 1010.5 |
| 20260831171505 | 63 | 175 | 4.0 | 11.0 | 0.00 | 0.03 | 0.00 | 94 | 1010.7 |
| 20260831170008 | 63 | 215 | 3.0 | 9.0 | 0.00 | 0.03 | 0.00 | 94 | 1010.6 |
| 20260831164504 | 63 | 198 | 3.0 | 10.0 | 0.00 | 0.03 | 0.00 | 93 | 1010.6 |
| 20260831163003 | 63 | 165 | 3.0 | 8.0 | 0.00 | 0.03 | 0.00 | 93 | 1010.6 |
| 20260831161506 | 63 | 184 | 4.0 | 10.0 | 0.00 | 0.03 | 0.00 | 92 | 1010.4 |
| 20260831160008 | 63 | 180 | 6.0 | 11.0 | 0.00 | 0.03 | 0.00 | 92 | 1010.7 |
| 20260831154502 | 63 | 205 | 3.0 | 13.0 | 0.00 | 0.03 | 0.00 | 92 | 1010.6 |
| 20260831153100 | 63 | 196 | 3.0 | 11.0 | 0.00 | 0.03 | 0.00 | 93 | 1010.8 |
| 20260831151600 | 63 | 197 | 5.0 | 11.0 | 0.00 | 0.03 | 0.00 | 92 | 1011.0 |
| 20260831150059 | 63 | 177 | 3.0 | 12.0 | 0.00 | 0.03 | 0.00 | 92 | 1011.0 |
| 20260831144605 | 63 | 187 | 4.0 | 15.0 | 0.00 | 0.03 | 0.00 | 92 | 1011.0 |
| 20260831143106 | 63 | 190 | 5.0 | 11.0 | 0.00 | 0.03 | 0.00 | 92 | 1011.1 |
| 20260831141557 | 64 | 194 | 5.0 | 13.0 | 0.00 | 0.03 | 0.00 | 91 | 1011.1 |
| 20260831140056 | 64 | 198 | 2.0 | 13.0 | 0.00 | 0.03 | 0.00 | 90 | 1011.0 |
| 20260831134556 | 64 | 226 | 6.0 | 12.0 | 0.00 | 0.03 | 0.00 | 91 | 1011.0 |
| 20260831133054 | 64 | 204 | 5.0 | 10.0 | 0.00 | 0.03 | 0.00 | 91 | 1010.9 |
| 20260831131556 | 64 | 185 | 2.0 | 8.0 | 0.00 | 0.03 | 0.00 | 92 | 1010.9 |
| 20260831130110 | 64 | 194 | 7.0 | 17.0 | 0.00 | 0.03 | 0.00 | 91 | 1011.0 |
| 20260831124553 | 64 | 184 | 4.0 | 11.0 | 0.00 | 0.03 | 0.00 | 90 | 1010.8 |
| 20260831123052 | 64 | 225 | 3.0 | 11.0 | 0.00 | 0.03 | 0.00 | 90 | 1010.7 |
| 20260831121552 | 65 | 192 | 5.0 | 13.0 | 0.00 | 0.03 | 0.00 | 89 | 1010.5 |
| 20260831120050 | 65 | 245 | 3.0 | 14.0 | 0.00 | 0.03 | 0.00 | 91 | 1010.6 |
| 20260831114550 | 64 | 214 | 4.0 | 12.0 | 0.00 | 0.03 | 0.00 | 90 | 1010.9 |
| 20260831113049 | 64 | 227 | 3.0 | 7.0 | 0.00 | 0.03 | 0.00 | 90 | 1011.0 |
| 20260831111548 | 64 | 242 | 3.0 | 8.0 | 0.00 | 0.03 | 0.00 | 89 | 1011.1 |
| 20260831110048 | 65 | 220 | 4.0 | 8.0 | 0.00 | 0.03 | 0.00 | 87 | 1011.1 |
| 20260831104548 | 64 | 229 | 3.0 | 7.0 | 0.00 | 0.03 | 0.00 | 88 | 1011.1 |
| 20260831103045 | 64 | 224 | 4.0 | 10.0 | 0.00 | 0.03 | 0.00 | 89 | 1011.1 |
| 20260831101543 | 65 | 169 | 5.0 | 9.0 | 0.00 | 0.03 | 0.00 | 89 | 1011.0 |
| 20260831100041 | 64 | 228 | 3.0 | 9.0 | 0.00 | 0.03 | 0.00 | 89 | 1011.0 |
| 20260831094540 | 64 | 245 | 4.0 | 9.0 | 0.00 | 0.03 | 0.00 | 89 | 1010.9 |
| 20260831093037 | 64 | 198 | 3.0 | 9.0 | 0.00 | 0.03 | 0.00 | 88 | 1010.9 |
| 20260831091535 | 64 | 219 | 3.0 | 6.0 | 0.00 | 0.03 | 0.00 | 89 | 1010.8 |
| 20260831090034 | 64 | 228 | 4.0 | 9.0 | 0.00 | 0.03 | 0.00 | 88 | 1010.7 |
| 20260831084532 | 63 | 227 | 3.0 | 10.0 | 0.00 | 0.03 | 0.00 | 90 | 1010.5 |
| 20260831083038 | 62 | 248 | 3.0 | 7.0 | 0.00 | 0.03 | 0.00 | 91 | 1010.5 |
| 20260831081529 | 62 | 244 | 4.0 | 9.0 | 0.00 | 0.03 | 0.00 | 91 | 1010.5 |
| 20260831080028 | 61 | 251 | 3.0 | 9.0 | 0.00 | 0.03 | 0.00 | 91 | 1010.4 |
| 20260831074527 | 61 | 238 | 3.0 | 10.0 | 0.00 | 0.03 | 0.00 | 90 | 1010.3 |
| 20260831073026 | 61 | 247 | 3.0 | 8.0 | 0.00 | 0.03 | 0.00 | 90 | 1010.4 |
| 20260831071524 | 61 | 248 | 3.0 | 9.0 | 0.00 | 0.03 | 0.00 | 89 | 1010.4 |
| 20260831070026 | 61 | 229 | 3.0 | 9.0 | 0.00 | 0.03 | 0.00 | 89 | 1010.0 |
| 20260831064522 | 61 | 245 | 4.0 | 9.0 | 0.00 | 0.03 | 0.00 | 90 | 1009.9 |
| 20260831063020 | 61 | 233 | 4.0 | 11.0 | 0.00 | 0.03 | 0.00 | 89 | 1009.8 |
| 20260831061519 | 61 | 223 | 4.0 | 12.0 | 0.00 | 0.03 | 0.00 | 91 | 1009.7 |
| 20260831060017 | 61 | 257 | 4.0 | 11.0 | 0.00 | 0.03 | 0.00 | 91 | 1009.4 |
| 20260831054516 | 61 | 243 | 5.0 | 13.0 | 0.00 | 0.03 | 0.00 | 91 | 1009.3 |
| 20260831053014 | 61 | 248 | 4.0 | 9.0 | 0.00 | 0.03 | 0.00 | 92 | 1009.4 |
| 20260831051512 | 61 | 234 | 4.0 | 11.0 | 0.00 | 0.03 | 0.00 | 91 | 1009.4 |
| 20260831050009 | 62 | 234 | 4.0 | 11.0 | 0.00 | 0.03 | 0.00 | 89 | 1009.0 |
| 20260831044507 | 62 | 240 | 5.0 | 11.0 | 0.00 | 0.03 | 0.00 | 89 | 1009.1 |
| 20260831043003 | 62 | 257 | 4.0 | 11.0 | 0.00 | 0.03 | 0.00 | 89 | 1008.9 |
| 20260831041502 | 62 | 249 | 4.0 | 14.0 | 0.00 | 0.03 | 0.00 | 89 | 1008.9 |
| 20260831040058 | 62 | 220 | 6.0 | 12.0 | 0.00 | 0.03 | 0.00 | 89 | 1008.6 |
| 20260831034555 | 62 | 240 | 5.0 | 9.0 | 0.00 | 0.03 | 0.00 | 89 | 1008.4 |
| 20260831033053 | 62 | 263 | 4.0 | 13.0 | 0.00 | 0.03 | 0.00 | 89 | 1008.2 |
| 20260831031552 | 62 | 219 | 3.0 | 17.0 | 0.00 | 0.03 | 0.00 | 89 | 1008.0 |
| 20260831030055 | 62 | 243 | 3.0 | 16.0 | 0.00 | 0.03 | 0.00 | 89 | 1008.0 |
| 20260831024607 | 62 | 236 | 6.0 | 14.0 | 0.00 | 0.03 | 0.00 | 89 | 1007.8 |
| 20260831023046 | 62 | 221 | 5.0 | 16.0 | 0.00 | 0.03 | 0.00 | 89 | 1007.7 |
| 20260831021551 | 62 | 236 | 5.0 | 16.0 | 0.00 | 0.03 | 0.00 | 89 | 1007.5 |
| 20260831020044 | 63 | 243 | 5.0 | 15.0 | 0.00 | 0.03 | 0.00 | 89 | 1007.3 |
| 20260831014541 | 63 | 251 | 6.0 | 13.0 | 0.00 | 0.03 | 0.00 | 89 | 1007.2 |
| 20260831013040 | 63 | 219 | 5.0 | 15.0 | 0.00 | 0.03 | 0.00 | 89 | 1007.1 |
| 20260831011550 | 63 | 171 | 5.0 | 11.0 | 0.00 | 0.03 | 0.00 | 88 | 1007.0 |
| 20260831003037 | 63 | 228 | 7.0 | 14.0 | 0.00 | 0.03 | 0.00 | 86 | 1006.7 |
| 20260830234523 | 64 | 203 | 4.0 | 7.0 | 0.00 | 0.03 | 0.00 | 89 | 1006.5 |
| 20260830233024 | 64 | 201 | 4.0 | 8.0 | 0.00 | 0.03 | 0.00 | 89 | 1006.4 |
| 20260830231520 | 64 | 205 | 3.0 | 8.0 | 0.00 | 0.03 | 0.00 | 89 | 1006.3 |